Time,TemperatureF,DewpointF,PressureIn,WindDirection,WindDirectionDegrees,WindSpeedMPH,WindSpeedGustMPH,Humidity,HourlyPrecipIn,Conditions,Clouds,dailyrainin,SoftwareType,DateUTC
2013-08-31 00:00:00,79.4,75.5,29.82,NNW,348,0.0,0.0,88,0.00,,SKC,0.00,VWS V14.01,2013-08-31 05:00:00,
2013-08-31 00:30:00,78.7,74.2,29.82,NNW,348,0.0,0.0,86,0.00,,SKC,0.00,VWS V14.01,2013-08-31 05:30:00,
2013-08-31 01:00:00,78.7,74.5,29.82,NNW,348,0.0,0.0,87,0.00,,SKC,0.00,VWS V14.01,2013-08-31 06:00:00,
2013-08-31 01:30:00,78.4,74.2,29.82,NNW,348,0.0,0.0,87,0.00,,SKC,0.00,VWS V14.01,2013-08-31 06:30:00,
2013-08-31 02:00:00,78.0,73.5,29.83,NNW,348,0.0,0.0,86,0.00,,SKC,0.00,VWS V14.01,2013-08-31 07:00:00,
2013-08-31 02:30:00,77.7,74.2,29.83,NNW,348,0.0,0.0,89,0.00,,SKC,0.00,VWS V14.01,2013-08-31 07:30:00,
2013-08-31 03:00:00,77.4,73.2,29.83,NNW,348,0.0,0.0,87,0.00,,SKC,0.00,VWS V14.01,2013-08-31 08:00:00,
2013-08-31 03:30:00,77.9,73.4,29.82,NNW,348,0.0,0.0,86,0.00,,SKC,0.00,VWS V14.01,2013-08-31 08:30:00,
2013-08-31 04:00:00,77.6,73.4,29.82,NNW,348,0.0,0.0,87,0.00,,SKC,0.00,VWS V14.01,2013-08-31 09:00:00,
2013-08-31 04:30:00,77.1,72.9,29.83,NNW,348,0.0,0.0,87,0.00,,SKC,0.00,VWS V14.01,2013-08-31 09:30:00,
2013-08-31 05:00:00,76.6,72.4,29.83,NNW,348,0.0,0.0,87,0.00,,SKC,0.00,VWS V14.01,2013-08-31 10:00:00,
2013-08-31 05:30:00,76.2,72.1,29.83,NNW,348,0.0,0.0,87,0.00,,SKC,0.00,VWS V14.01,2013-08-31 10:30:00,
2013-08-31 06:00:00,75.8,72.3,29.84,NNW,348,0.0,0.0,89,0.00,,SKC,0.00,VWS V14.01,2013-08-31 11:00:00,
2013-08-31 06:30:00,75.1,71.6,29.84,NNW,348,0.0,0.0,89,0.00,,SKC,0.00,VWS V14.01,2013-08-31 11:30:00,
2013-08-31 07:00:00,75.6,72.8,29.85,NNW,348,0.0,0.0,91,0.00,,SKC,0.00,VWS V14.01,2013-08-31 12:00:00,
2013-08-31 07:30:00,78.0,73.8,29.85,NNW,348,0.0,0.0,87,0.00,,SKC,0.00,VWS V14.01,2013-08-31 12:30:00,
2013-08-31 08:00:00,80.7,73.6,29.85,NNW,348,2.0,4.0,79,0.00,,SKC,0.00,VWS V14.01,2013-08-31 13:00:00,
2013-08-31 08:30:00,84.0,74.4,29.85,South,172,0.0,5.0,73,0.00,,SKC,0.00,VWS V14.01,2013-08-31 13:30:00,
2013-08-31 09:00:00,85.8,74.0,29.85,SSE,166,2.0,7.0,68,0.00,,SKC,0.00,VWS V14.01,2013-08-31 14:00:00,
2013-08-31 09:30:00,87.7,74.5,29.85,South,184,3.0,7.0,65,0.00,,SKC,0.00,VWS V14.01,2013-08-31 14:30:00,
2013-08-31 10:00:00,89.1,74.9,29.85,SSW,211,0.0,8.0,63,0.00,,SKC,0.00,VWS V14.01,2013-08-31 15:00:00,
2013-08-31 10:30:00,90.7,75.4,29.85,SW,227,1.0,8.0,61,0.00,,SKC,0.00,VWS V14.01,2013-08-31 15:30:00,
2013-08-31 11:00:00,91.2,74.9,29.84,South,190,4.0,8.0,59,0.00,,SKC,0.00,VWS V14.01,2013-08-31 16:00:00,
2013-08-31 11:30:00,91.9,75.0,29.84,SW,219,4.0,9.0,58,0.00,,SKC,0.00,VWS V14.01,2013-08-31 16:30:00,
2013-08-31 12:00:00,93.2,75.7,29.84,West,271,0.0,9.0,57,0.00,,SKC,0.00,VWS V14.01,2013-08-31 17:00:00,
2013-08-31 12:30:00,93.5,75.5,29.83,SW,235,0.0,9.0,56,0.00,,SKC,0.00,VWS V14.01,2013-08-31 17:30:00,
2013-08-31 13:00:00,94.2,76.6,29.83,SW,215,8.0,8.0,57,0.00,,SKC,0.00,VWS V14.01,2013-08-31 18:00:00,
2013-08-31 13:30:00,93.8,76.8,29.82,SSE,164,5.0,9.0,58,0.00,,SKC,0.00,VWS V14.01,2013-08-31 18:30:00,
2013-08-31 14:00:00,94.7,76.6,29.82,SW,234,4.0,7.0,56,0.00,,SKC,0.00,VWS V14.01,2013-08-31 19:00:00,
2013-08-31 14:30:00,95.3,74.9,29.80,SSE,159,4.0,8.0,52,0.00,,SKC,0.00,VWS V14.01,2013-08-31 19:30:00,
2013-08-31 15:00:00,95.1,75.3,29.79,North,10,0.0,7.0,53,0.00,,SKC,0.00,VWS V14.01,2013-08-31 20:00:00,
2013-08-31 15:30:00,95.7,74.7,29.78,SSW,200,0.0,8.0,51,0.00,,SKC,0.00,VWS V14.01,2013-08-31 20:30:00,
2013-08-31 16:00:00,97.0,75.3,29.77,WSW,244,2.0,8.0,50,0.00,,SKC,0.00,VWS V14.01,2013-08-31 21:00:00,
2013-08-31 16:30:00,95.6,75.8,29.76,SSW,193,0.0,8.0,53,0.00,,SKC,0.00,VWS V14.01,2013-08-31 21:30:00,
2013-08-31 17:00:00,95.6,75.8,29.75,SSW,206,0.0,9.0,53,0.00,,SKC,0.00,VWS V14.01,2013-08-31 22:00:00,
2013-08-31 17:30:00,95.2,75.9,29.75,South,188,0.0,7.0,54,0.00,,SKC,0.00,VWS V14.01,2013-08-31 22:30:00,
2013-08-31 18:00:00,94.1,74.9,29.75,South,190,0.0,7.0,54,0.00,,SKC,0.00,VWS V14.01,2013-08-31 23:00:00,
2013-08-31 18:30:00,93.2,74.1,29.75,SSW,192,0.0,8.0,54,0.00,,SKC,0.00,VWS V14.01,2013-08-31 23:30:00,
2013-08-31 19:00:00,92.0,74.1,29.75,SSW,192,0.0,5.0,56,0.00,,SKC,0.00,VWS V14.01,2013-09-01 00:00:00,
2013-08-31 19:30:00,90.5,73.7,29.76,SSW,193,0.0,5.0,58,0.00,,SKC,0.00,VWS V14.01,2013-09-01 00:30:00,
2013-08-31 20:00:00,88.4,74.2,29.76,SSW,192,0.0,0.0,63,0.00,,SKC,0.00,VWS V14.01,2013-09-01 01:00:00,
2013-08-31 20:30:00,86.8,74.5,29.77,SSW,193,0.0,0.0,67,0.00,,SKC,0.00,VWS V14.01,2013-09-01 01:30:00,
2013-08-31 21:00:00,85.0,73.7,29.77,SSW,192,0.0,0.0,69,0.00,,SKC,0.00,VWS V14.01,2013-09-01 02:00:00,
2013-08-31 21:30:00,84.1,73.3,29.78,SSW,193,0.0,0.0,70,0.00,,SKC,0.00,VWS V14.01,2013-09-01 02:30:00,
2013-08-31 22:00:00,83.2,75.2,29.78,SSW,193,0.0,0.0,77,0.00,,SKC,0.00,VWS V14.01,2013-09-01 03:00:00,
2013-08-31 22:30:00,82.3,74.4,29.77,SSW,192,0.0,0.0,77,0.00,,SKC,0.00,VWS V14.01,2013-09-01 03:30:00,
2013-08-31 23:00:00,81.4,73.1,29.76,SSW,192,0.0,0.0,76,0.00,,SKC,0.00,VWS V14.01,2013-09-01 04:00:00,
2013-08-31 23:30:00,80.9,73.4,29.76,SSW,193,0.0,0.0,78,0.00,,SKC,0.00,VWS V14.01,2013-09-01 04:30:00,